This demonstration page uses our WeatherBlox Daily Observations layout. Learn more.

Left ArrowRight Arrow

Hourly Observations for March 18, 2019

Temp ( °F °C ) Dew Point ( °F °C ) Humidity (%) Winds ( mph kmh ) Pressure ( in mb ) Visibility ( mi km ) Precip ( " mm )
12:57 am 00:57 Clear 32 0 27 -2.8 82 82 NNE 14 22 30.46 1032 10 16 0.00 0.00
1:57 am 01:57 Clear 30 -1.1 26 -3.3 85 85 NNE 8 13 30.47 1032 10 16 0.00 0.00
2:57 am 02:57 Clear 29 -1.7 25 -3.9 85 85 NNE 9 15 30.48 1032 10 16 0.00 0.00
3:57 am 03:57 Clear 28 -2.2 24 -4.4 85 85 N 6 9 30.48 1032 10 16 0.00 0.00
4:57 am 04:57 Clear 27 -2.8 24 -4.4 89 89 NNW 7 11 30.46 1032 10 16 0.00 0.00
5:57 am 05:57 Clear 27 -2.8 24 -4.4 89 89 N 6 9 30.47 1032 10 16 0.00 0.00
6:57 am 06:57 Clear 25 -3.9 23 -5 92 92 N 6 9 30.48 1032 10 16 0.00 0.00
7:57 am 07:57 Sunny 25 -3.9 23 -5 92 92 N 5 7 30.48 1032 10 16 0.00 0.00
8:57 am 08:57 Sunny 28 -2.2 25 -3.9 88 88 W 5 7 30.50 1033 10 16 0.00 0.00
9:57 am 09:57 Sunny 33 0.6 28 -2.2 82 82 NNE 7 11 30.49 1033 10 16 0.00 0.00
10:57 am 10:57 Sunny 34 1.1 24 -4.4 67 67 ESE 5 7 30.49 1033 10 16 0.00 0.00
11:57 am 11:57 Sunny 37 2.8 23 -5 57 57 SE 9 15 30.48 1032 10 16 0.00 0.00
12:57 pm 12:57 Sunny 39 3.9 23 -5 53 53 SSE 7 11 30.46 1032 10 16 0.00 0.00
1:57 pm 13:57 Sunny 41 5 24 -4.4 51 51 SE 7 11 30.44 1031 10 16 0.00 0.00
2:57 pm 14:57 Sunny 42 5.6 27 -2.8 55 55 S 5 7 30.39 1029 10 16 0.00 0.00
3:57 pm 15:57 Sunny 43 6.1 29 -1.7 58 58 S 8 13 30.36 1028 10 16 0.00 0.00
4:57 pm 16:57 Sunny 44 6.7 28 -2.2 53 53 SSW 7 11 30.34 1028 10 16 0.00 0.00
5:57 pm 17:57 Sunny 44 6.7 28 -2.2 53 53 S 8 13 30.32 1027 10 16 0.00 0.00
6:57 pm 18:57 Mostly Cloudy 43 6.1 31 -0.6 63 63 SE 7 11 30.32 1027 10 16 0.00 0.00
7:57 pm 19:57 Cloudy 41 5 31 -0.6 67 67 SE 6 9 30.32 1027 10 16 0.00 0.00
8:57 pm 20:57 Cloudy 39 3.9 31 -0.6 73 73 SE 5 7 30.32 1027 10 16 0.00 0.00
9:57 pm 21:57 Cloudy 40 4.4 31 -0.6 70 70 E 8 13 30.30 1026 10 16 0.00 0.03
10:57 pm 22:57 Cloudy 39 3.9 32 0 76 76 E 8 13 30.30 1026 10 16 0.00 0.00
11:57 pm 23:57 Cloudy 38 3.3 31 -0.6 76 76 ESE 8 13 30.29 1026 10 16 0.00 0.03

Powered by AerisWeather